Retour au catalogue

STARLINK-35273

ActifCommunicationsSSO
NORAD 65805·PAYLOAD·🇺🇸 United States

Lancé Sep 26, 2025 depuis Vandenberg Space Force Base

Loading…

Prochains Passages (prochaines 24 heures)

TLE

FraisSource: CelesTrak SupGP

Époque: Sep 14, 2026, 22:48 UTC

1 65805C 25218Q   26257.95048611  .00050437  00000+0  15656-2 0  2578
2 65805  97.2840 115.4087 0001880  94.4952 264.4365 15.33414838    13

Suivez STARLINK-35273 en temps réel avec AllMySat

Download on the App Store